Miscellaneous Local Product
Issued by NWS North Platte, NE

Home | Current Version | Previous Version | Text Only | Print | Product List | Glossary On
Versions: 1 2 3 4 5 6 7 8 9 10 11 12 13 14 15 16 17 18 19 20 21 22 23 24 25 26 27 28 29 30 31 32 33 34 35 36 37 38 39 40 41 42 43 44 45 46 47 48 49 50
000
AXUS43 KLBF 021610
MISLBF


WESTERN AND NORTH CENTRAL NEBRASKA HOURLY WEATHER ROUNDUP
NATIONAL WEATHER SERVICE NORTH PLATTE NE
1100 AM CDT THU APR 02 2020

NOTE: "FAIR" INDICATES FEW OR NO CLOUDS BELOW 12,000 FEET WITH NO
SIGNIFICANT WEATHER AND/OR OBSTRUCTIONS TO VISIBILITY.

NOTE: STATIONS NOT REPORTING SKY/WEATHER AND PRESSURE ARE
PROVIDED BY RAWS AND APRS NETWORKS AND ARE NOT UNDER NATIONAL
WEATHER SERVICE QUALITY CONTROL.

...OBSERVATIONS IN AND NEAR THE EASTERN PANHANDLE OF NEBRASKA...

CITY           SKY/WX    TMP DP  RH WIND       PRES   REMARKS
PINE RIDGE     LGT SNOW  15   8  73 N14G26    30.09F WCI   0
GORDON         LGT SNOW  15  10  82 N20G29    30.04S WCI  -2
CHADRON        LGT SNOW  16  12  84 NE16      30.10S FOG     WCI   1
ALLIANCE       FLURRIES  17  13  84 N22       30.00S WCI   0
SIDNEY         LGT SNOW  17  13  84 N22G33    29.96S FOG     WCI   0
$$

...OBSERVATIONS IN NORTHERN NEBRASKA AND FAR SOUTHERN SOUTH DAKOTA...

CITY           SKY/WX    TMP DP  RH WIND       PRES   REMARKS
WINNER         LGT SNOW  17  12  80 NW25G35   30.08R WCI  -1
VALENTINE      LGT SNOW  17  11  77 NW22G31   30.05S WCI   0
AINSWORTH      LGT SNOW  17  14  86 N18       30.02S WCI   1
O`NEILL        CLOUDY    22  20  91 NW18G24   29.99R FOG     WCI   7
THEDFORD       LGT SNOW  19  16  89 N17G25    30.01R WCI   4
BROKEN BOW     FLURRIES  22  17  81 N31G45    29.95R WCI   4
ORD            FRZ RAIN  24  20  84 N23       29.95R FOG     WCI   9
ALBION         MIX PCPN  31  29  94 N18G26    29.91F WCI  19
EWING            N/A     23  21  93 N15G23      N/A  WCI  10
CHAMBERS         N/A     20  18  90 NW6G16      N/A  WCI  12
BUTTE            N/A     18  16  92 NW18G26     N/A  WCI   2
SPRINGVIEW       N/A     17  13  84 NW16G23     N/A  WCI   2
HALSEY           N/A     17  14  87 NW13G20     N/A  WCI   4
$$

...OBSERVATIONS IN SOUTHWEST NEBRASKA AND FAR NORTHEAST COLORADO...

CITY           SKY/WX    TMP DP  RH WIND       PRES   REMARKS
WRAY           CLOUDY    25  21  86 N22       29.95  WCI  10
HOLYOKE        CLOUDY    25  21  86 N18G28    29.97  WCI  11
IMPERIAL       CLOUDY    23  19  85 N20G33    29.96R WCI   8
OGALLALA       FLURRIES  22  18  86 N18G28    29.99R WCI   7
NORTH PLATTE   CLOUDY    22  16  78 N21G32    29.98R WCI   6
MCCOOK         CLOUDY    26  22  84 N22       29.95R FOG     WCI  12
LEXINGTON      CLOUDY    25  24  93 N20       29.95R FOG     WCI  11
CALLAWAY         N/A     22  20  92 E13         N/A  WCI  10
STAPLETON        N/A     17  14  89 N5G12       N/A  WCI  10
$$

...OBSERVATIONS IN CENTRAL LINCOLN COUNTY AREA...

CITY           SKY/WX    TMP DP  RH WIND       PRES   REMARKS
N.P. AIRPORT   CLOUDY    22  16  78 N21G32    29.98R WCI   6
N.P. HILLCREST   N/A     19  17  91 N17G24      N/A  WCI   4
N.P. DOWNTOWN    N/A     19  16  88 N10         N/A  WCI   7
N.P. SOUTHEAST   N/A     19  16  86 N10G22      N/A  WCI   7
$$

...OBSERVATIONS ACROSS THE ROCKIES AND WESTERN HIGH PLAINS...

CITY           SKY/WX    TMP DP  RH WIND       PRES   REMARKS
SCOTTSBLUFF    CLOUDY    22  17  81 N13       30.02R WCI  10
KIMBALL        MIX PCPN  19  18  93 N10       29.96R WCI   8
CHEYENNE       LGT SNOW  13   8  81 N14G24    29.90R WCI  -2
DENVER         FRZ DRZL  24  22  91 NE15      29.91R VSB 3/4 WCI  11
STEAMBOAT      CLOUDY    25  25 100 SW7       29.85R VSB 1/2 WCI  17
COPPER MTN     FAIR      34  19  55 S15       29.86
LEADVILLE      FAIR      34  17  50 W12G21    29.80S
ASPEN          PTSUNNY   46  22  38 SW6G20    29.75R
GUNNISON       PTSUNNY   48  22  35 SW14G25   29.81F
TELLURIDE      PTSUNNY   41  27  56 S8G20     29.89F
LARAMIE        CLOUDY    17  11  77 NW9       29.83R WCI   6
CASPER         CLOUDY     8   2  76 N13       30.05R WCI  -8
SHERIDAN       LGT SNOW  13   5  70 N5        30.19R WCI   5
JACKSON        PTSUNNY   22  13  68 S13       29.88R WCI  10
YELLOWSTONE      N/A     13   5  70 NW5       29.87R WCI   5
$$

...OBSERVATIONS ACROSS THE NORTHERN PLAINS...

CITY           SKY/WX    TMP DP  RH WIND       PRES   REMARKS
RAPID CITY     HAZE      13   6  74 N29G39    30.09F VSB 1   WCI  -8
PIERRE         LGT SNOW  16  13  88 NW23G35   30.10S FOG     WCI  -2
SIOUX FALLS    CLOUDY    36  32  85 NW15      29.90F
ABERDEEN       MIX PCPN  20  16  84 N23G35    30.04R FOG     WCI   3
DICKINSON      LGT SNOW   8   2  76 NW20      30.17R VSB 3/4 WCI -11
BISMARCK       SNOW      13   8  81 NW15G25   30.17S VSB 1/2 WCI  -3
FARGO          FRZ RAIN  28  27  96 NW22      29.97R FOG     WCI  14
$$

...OBSERVATIONS ACROSS THE CENTRAL AND SOUTHERN PLAINS...

CITY           SKY/WX    TMP DP  RH WIND       PRES   REMARKS
GRAND ISLAND   LGT SNOW  31  28  89 N20G31    29.91R FOG     WCI  19
LINCOLN        CLOUDY    63  48  58 S15G23    29.82R
OMAHA          CLOUDY    63  47  55 S13       29.83S
DES MOINES     CLOUDY    59  44  57 S16       29.93S
KANSAS CITY    CLOUDY    54  50  86 SE15      29.89F THUNDER
WICHITA        CLOUDY    63  52  67 S22G33    29.78R
DODGE CITY     CLOUDY    40  37  89 N20G31    29.77R FOG
OKLAHOMA CITY  CLOUDY    60  54  80 S22G36    29.82R
DALLAS         CLOUDY    66  57  72 S12G24    29.94S
AMARILLO       FAIR      70  31  23 W17       29.77S
$$



USA.gov is the U.S. government's official web portal to all federal, state and local government web resources and services.